Location: Houston
(29.7630°N, 95.3630°W)
Time: 07:25:41
(UTC-05:00)

Amateur Radio Satellites - All Passes

Search period start: 24 July 2014 06:55
Search period end: 25 July 2014 06:55
Location: Houston, 29.7630°N, 95.3630°W

Satellite Date Start Highest point End Downlink Frequencies (MHz)
Time Altitude Azimuth
AO-7 24 Jul 06:56:11 07:03:34 37° 295° (WNW) 07:10:55 29.400 - 29.500 MHz
JAS-2 24 Jul 07:10:44 07:16:21 43° 98° (E) 07:21:26 435.800 - 435.900 CW/SSB, 435.910 FM
STRAND 1 24 Jul 07:30:24 07:35:33 87° 257° (WSW) 07:40:43 ?
SO-67 24 Jul 07:50:41 07:53:27 22° 97° (E) 07:56:13 435.3500 MHz FM
Lituanica SAT-1 24 Jul 08:03:59 08:06:07 80° 47° (NE) 08:08:16 437.275 MHz beacon
ISS 24 Jul 08:26:58 08:28:56 15° 36° (NE) 08:30:53 145.800 FM
PANSAT 24 Jul 08:29:43 08:33:32 62° 172° (S) 08:37:20 not established
Hamsat 24 Jul 08:30:01 08:32:02 13° 291° (WNW) 08:34:04 145.90 MHz
MaSat-1 24 Jul 08:45:48 08:51:02 56° 66° (ENE) 08:55:54 437.345 MHz
KITSAT 1 24 Jul 08:46:51 08:54:04 35° 304° (NW) 09:01:19 435.175 FM
JAS-2 24 Jul 08:56:54 09:00:56 19° 295° (WNW) 09:04:43 435.800 - 435.900 CW/SSB, 435.910 FM
Saudisat 1A 24 Jul 09:18:19 09:22:43 71° 298° (WNW) 09:27:08 436.775 MHz
SO-67 24 Jul 09:24:32 09:26:16 13° 289° (WNW) 09:28:01 435.3500 MHz FM
HO-68 24 Jul 09:37:02 09:43:15 32° 99° (E) 09:49:25 435.675 MHz FM
ISS 24 Jul 10:02:36 10:05:47 42° 230° (SW) 10:08:58 145.800 FM
PANSAT 24 Jul 10:09:49 10:13:39 70° 184° (S) 10:17:28 not established
UKube-1 24 Jul 10:19:07 10:23:21 49° 100° (E) 10:27:32 145.840 MHz, 145.915 MHz
MaSat-1 24 Jul 10:25:26 10:27:45 13° 261° (W) 10:30:00 437.345 MHz
Sapphire 24 Jul 11:06:53 11:10:33 18° 55° (NE) 11:14:12 437.095 MHz 1200 baud AX-25 AFSK
Oscar 11 24 Jul 11:09:56 11:14:17 81° 283° (WNW) 11:18:36 145.825 FM, Beacon 2401.500 USB
FUNcube-1 24 Jul 11:17:03 11:20:54 36° 99° (E) 11:24:47 145.950 - 145.970 MHz USB
HO-68 24 Jul 11:24:24 11:30:51 38° 292° (WNW) 11:37:17 435.675 MHz FM
PCSat 24 Jul 11:39:48 11:44:51 39° 61° (ENE) 11:49:53 145.825 MHz
PANSAT 24 Jul 11:50:07 11:53:40 36° 197° (SSW) 11:57:12 not established
UKube-1 24 Jul 11:58:02 11:59:04 11° 293° (WNW) 12:00:05 145.840 MHz, 145.915 MHz
RS-15 24 Jul 12:45:56 12:52:39 18° 102° (ESE) 12:59:12 29.354 - 29.394 USB, Beacon 29.352 USB
Sapphire 24 Jul 12:48:59 12:54:11 48° 250° (WSW) 12:59:21 437.095 MHz 1200 baud AX-25 AFSK
FUNcube-1 24 Jul 12:55:05 12:56:57 13° 291° (WNW) 12:58:50 145.950 - 145.970 MHz USB
Oscar 16 24 Jul 12:55:32 12:57:05 11° 65° (ENE) 12:58:38 437.025 USB, Beacon 2401.1428
SO-50 24 Jul 12:56:46 12:59:22 15° 108° (ESE) 13:01:59 436.795 FM
PCSat 24 Jul 13:24:02 13:27:55 20° 255° (WSW) 13:31:48 145.825 MHz
Uribyol 2 24 Jul 13:27:04 13:28:07 11° 65° (ENE) 13:29:10 436.500 FM
JAS-1B 24 Jul 13:27:50 13:31:09 13° 54° (NE) 13:34:35 435.800 - 435.900 CW/SSB
PANSAT 24 Jul 13:32:14 13:33:24 11° 207° (SSW) 13:34:33 not established
Oscar 19 24 Jul 14:03:20 14:08:21 61° 75° (ENE) 14:13:23 437.125 CW, 437.150 USB
Oscar 16 24 Jul 14:30:46 14:35:50 64° 259° (WSW) 14:40:55 437.025 USB, Beacon 2401.1428
TMSAT-1 24 Jul 14:34:47 14:37:25 14° 66° (ENE) 14:40:02 436.925 FM
SO-50 24 Jul 14:35:26 14:39:32 37° 301° (WNW) 14:43:43 436.795 FM
ITAMSAT 1 24 Jul 14:40:59 14:46:09 66° 75° (ENE) 14:51:19 435.822 SSB
RS-15 24 Jul 14:52:21 15:03:40 85° 296° (WNW) 15:14:40 29.354 - 29.394 USB, Beacon 29.352 USB
Gurwin Techsat 1B 24 Jul 14:53:33 14:58:12 32° 71° (ENE) 15:02:52 435.225 FM
AO-27 24 Jul 14:58:47 15:04:00 80° 257° (WSW) 15:09:15 436.795 MHz FM
AO-Echo 24 Jul 14:58:54 15:04:07 79° 258° (WSW) 15:09:27 ?
Uribyol 2 24 Jul 15:01:44 15:06:55 71° 258° (WSW) 15:12:07 436.500 FM
JAS-1B 24 Jul 15:11:34 15:19:38 70° 73° (ENE) 15:29:04 435.800 - 435.900 CW/SSB
UOSAT-12 24 Jul 15:23:49 15:28:02 39° 112° (ESE) 15:32:20 437.025 FM, 437.400 FM
Oscar 19 24 Jul 15:46:50 15:47:58 11° 267° (W) 15:49:07 437.125 CW, 437.150 USB
AO-7 24 Jul 15:56:06 16:03:15 33° 64° (ENE) 16:10:24 29.400 - 29.500 MHz
TMSAT-1 24 Jul 16:11:36 16:16:47 56° 259° (W) 16:22:00 436.925 FM
ITAMSAT 1 24 Jul 16:25:11 16:25:57 10° 267° (W) 16:26:42 435.822 SSB
Gurwin Techsat 1B 24 Jul 16:33:56 16:38:06 23° 264° (W) 16:42:18 435.225 FM
KITSAT 1 24 Jul 16:45:56 16:53:32 43° 58° (ENE) 17:01:03 435.175 FM
Uosat F 24 Jul 16:51:50 16:56:52 79° 76° (ENE) 17:01:56 435.120 FM
Oscar 10/S400 24 Jul 16:52:14 17:11:14 17° 158° (SSE) 17:23:21 145.825 - 145.975 CW/USB, Beacon 145.810 USB
JAS-1B 24 Jul 17:05:02 17:10:52 21° 270° (W) 17:17:20 435.800 - 435.900 CW/SSB
UOSAT-12 24 Jul 17:05:14 17:08:18 18° 307° (NW) 17:11:25 437.025 FM, 437.400 FM
RS-15 24 Jul 17:10:07 17:17:39 20° 318° (NW) 17:25:09 29.354 - 29.394 USB, Beacon 29.352 USB
JAS-2 24 Jul 17:17:50 17:21:23 14° 62° (ENE) 17:24:52 435.800 - 435.900 CW/SSB, 435.910 FM
OPAL 24 Jul 17:32:00 17:37:04 77° 286° (WNW) 17:42:11 ?
Hamsat 24 Jul 17:41:59 17:43:55 13° 69° (ENE) 17:45:51 145.90 MHz
AO-7 24 Jul 17:47:47 17:55:40 46° 258° (WSW) 18:03:37 29.400 - 29.500 MHz
Saudisat 1A 24 Jul 17:51:53 17:54:48 17° 54° (NE) 17:57:43 436.775 MHz
KITSAT 1 24 Jul 18:41:39 18:48:38 34° 253° (WSW) 18:55:37 435.175 FM
JAS-2 24 Jul 18:57:29 19:05:21 84° 76° (ENE) 19:13:03 435.800 - 435.900 CW/SSB, 435.910 FM
Hamsat 24 Jul 19:15:41 19:19:31 36° 262° (W) 19:23:22 145.90 MHz
Saudisat 1A 24 Jul 19:30:27 19:34:27 35° 248° (WSW) 19:38:27 436.775 MHz
STRAND 1 24 Jul 19:47:21 19:52:20 53° 101° (E) 19:57:16 ?
SO-67 24 Jul 19:50:07 19:53:34 74° 78° (ENE) 19:57:01 435.3500 MHz FM
HO-68 24 Jul 20:02:54 20:05:39 13° 59° (ENE) 20:08:23 435.675 MHz FM
JAS-2 24 Jul 20:46:42 20:50:47 15° 268° (W) 20:54:52 435.800 - 435.900 CW/SSB, 435.910 FM
UKube-1 24 Jul 21:09:39 21:12:53 21° 70° (ENE) 21:16:06 145.840 MHz, 145.915 MHz
STRAND 1 24 Jul 21:28:31 21:31:00 14° 294° (WNW) 21:33:29 ?
HO-68 24 Jul 21:45:07 21:52:19 87° 74° (ENE) 21:59:31 435.675 MHz FM
RS-15 24 Jul 21:51:47 21:57:21 15° 36° (NE) 22:02:58 29.354 - 29.394 USB, Beacon 29.352 USB
Oscar 11 24 Jul 21:59:14 22:03:09 35° 74° (ENE) 22:07:05 145.825 FM, Beacon 2401.500 USB
FUNcube-1 24 Jul 22:09:04 22:11:38 15° 70° (ENE) 22:14:10 145.950 - 145.970 MHz USB
MaSat-1 24 Jul 22:31:38 22:35:11 75° 110° (ESE) 22:39:27 437.345 MHz
UKube-1 24 Jul 22:45:17 22:48:53 25° 262° (W) 22:52:30 145.840 MHz, 145.915 MHz
SO-50 24 Jul 23:12:24 23:16:50 37° 59° (ENE) 23:21:18 436.795 FM
Oscar 11 24 Jul 23:37:14 23:39:24 14° 266° (W) 23:41:34 145.825 FM, Beacon 2401.500 USB
HO-68 24 Jul 23:38:25 23:40:35 11° 267° (W) 23:42:46 435.675 MHz FM
FUNcube-1 24 Jul 23:43:43 23:47:44 34° 261° (W) 23:51:40 145.950 - 145.970 MHz USB
Lituanica SAT-1 25 Jul 00:00:58 00:02:33 18° 318° (NW) 00:04:07 437.275 MHz beacon
RS-15 25 Jul 00:01:21 00:12:21 63° 60° (ENE) 00:23:46 29.354 - 29.394 USB, Beacon 29.352 USB
PCSat 25 Jul 00:36:09 00:37:40 11° 103° (ESE) 00:39:11 145.825 MHz
SO-50 25 Jul 00:53:50 00:57:06 18° 251° (WSW) 01:00:22 436.795 FM
ISS 25 Jul 01:03:44 01:07:03 74° 314° (NW) 01:10:24 145.800 FM
UOSAT-12 25 Jul 01:38:42 01:43:25 83° 62° (ENE) 01:48:03 437.025 FM, 437.400 FM
Sapphire 25 Jul 01:41:20 01:46:33 53° 110° (ESE) 01:51:48 437.095 MHz 1200 baud AX-25 AFSK
AO-40 25 Jul 01:59:54 03:35:28 17° 108° (ESE) 04:33:04 Beacon 2401.320
RS-15 25 Jul 02:14:56 02:23:56 29° 255° (WSW) 02:33:18 29.354 - 29.394 USB, Beacon 29.352 USB
PCSat 25 Jul 02:15:04 02:20:25 66° 295° (WNW) 02:25:49 145.825 MHz
Oscar 19 25 Jul 02:21:17 02:26:01 36° 99° (E) 02:30:44 437.125 CW, 437.150 USB
Oscar 16 25 Jul 02:48:30 02:53:40 76° 102° (ESE) 02:58:50 437.025 USB, Beacon 2401.1428
ITAMSAT 1 25 Jul 03:00:21 03:05:09 39° 99° (E) 03:09:56 435.822 SSB
JAS-1B 25 Jul 03:06:10 03:14:11 33° 94° (E) 03:21:09 435.800 - 435.900 CW/SSB
AO-Echo 25 Jul 03:12:50 03:17:49 56° 100° (E) 03:22:36 ?
Gurwin Techsat 1B 25 Jul 03:16:21 03:20:19 21° 96° (E) 03:24:15 435.225 FM
AO-27 25 Jul 03:18:06 03:23:14 62° 101° (ESE) 03:28:20 436.795 MHz FM
Uribyol 2 25 Jul 03:20:41 03:25:50 70° 102° (ESE) 03:30:57 436.500 FM
Sapphire 25 Jul 03:26:50 03:30:15 17° 305° (NW) 03:33:40 437.095 MHz 1200 baud AX-25 AFSK
Oscar 19 25 Jul 04:01:20 04:05:03 20° 291° (WNW) 04:08:46 437.125 CW, 437.150 USB
AO-7 25 Jul 04:07:07 04:10:35 13° 94° (E) 04:14:00 29.400 - 29.500 MHz
TMSAT-1 25 Jul 04:33:32 04:38:51 84° 284° (WNW) 04:44:07 436.925 FM
ITAMSAT 1 25 Jul 04:40:46 04:44:18 19° 292° (WNW) 04:47:50 435.822 SSB
OPAL 25 Jul 04:41:11 04:46:08 85° 255° (WSW) 04:51:06 ?
AO-Echo 25 Jul 04:53:55 04:55:59 13° 294° (WNW) 04:58:01 ?
Gurwin Techsat 1B 25 Jul 04:55:30 05:00:16 35° 288° (WNW) 05:05:02 435.225 FM
JAS-1B 25 Jul 04:55:58 05:04:46 47° 292° (WNW) 05:12:23 435.800 - 435.900 CW/SSB
AO-27 25 Jul 05:00:16 05:02:09 12° 295° (WNW) 05:04:02 436.795 MHz FM
Uribyol 2 25 Jul 05:03:44 05:04:39 10° 295° (WNW) 05:05:33 436.500 FM
Uosat F 25 Jul 05:05:59 05:10:41 40° 99° (E) 05:15:21 435.120 FM
AO-7 25 Jul 05:55:41 06:04:03 90° 287° (WNW) 06:12:21 29.400 - 29.500 MHz
JAS-2 25 Jul 06:18:57 06:20:47 12° 90° (E) 06:22:34 435.800 - 435.900 CW/SSB, 435.910 FM
PANSAT 25 Jul 06:25:18 06:28:40 28° 161° (SSE) 06:32:01 not established
Uosat F 25 Jul 06:45:52 06:49:06 17° 292° (WNW) 06:52:19 435.120 FM
